Weather History for Amritsar, India

Change the Weather History Date:

Wednesday, February 26, 2014

  Actual Average Record
Temperature  
Mean Temperature 59 °F -  
Max Temperature 73 °F 71 °F 80 °F (2004)
Min Temperature 45 °F 50 °F 39 °F (2012)
Degree Days  
Heating Degree Days 6    
Growing Degree Days 9 (Base 50)    
Moisture  
Dew Point 50 °F    
Average Humidity 70    
Maximum Humidity 100    
Minimum Humidity 33    
Precipitation  
Precipitation 0.00 in - - ()
Sea Level Pressure  
Sea Level Pressure 30.00 in    
Wind  
Wind Speed 1 mph ()    
Max Wind Speed 6 mph    
Max Gust Speed -    
Visibility 2.3 miles    
Events      
Averages and records for this station are not official NWS values.
T = Trace of Precipitation, MM = Missing Value Source: Averaged Metar Reports

Daily Weather History Graph

Daily Weather History Graph

Search for Another Location

Airport:

Trip Planner

Search our weather history database for the weather conditions in past years. The results will help you decide how hot, cold, wet, or windy it might be!

Date:

Astronomy

Feb. 26, 2014 Rise Set
Actual Time 7:01 AM IST 6:26 PM IST
Civil Twilight 6:37 AM IST 6:50 PM IST
Nautical Twilight 6:08 AM IST 7:19 PM IST
Astronomical Twilight 5:40 AM IST 7:47 PM IST
Moon 4:16 AM IST (2/26) 3:17 PM IST (2/26)
Length of Visible Light 12h 13m
Length of Day
11h 24m
Waning Crescent, 13% of the Moon is Illuminated
Feb 26
Waning Crescent
Mar 1
New
Mar 8
First Quarter
Mar 16
Full
Mar 24
Last Quarter

Hourly Weather History & Observations

Time (IST) Temp. Dew Point Humidity Pressure Visibility Wind Dir Wind Speed Gust Speed Precip Events Conditions
12:00 AM 51.8 °F 48.2 °F 88% 30.06 in 1.9 mi Calm Calm - N/A   Mist
1:30 AM 51.8 °F 48.2 °F 88% 30.04 in 1.6 mi Calm Calm - N/A   Mist
2:00 AM 51.8 °F 48.2 °F 88% 30.04 in 1.6 mi Calm Calm - N/A   Mist
2:30 AM 50.0 °F 48.2 °F 94% 30.04 in 1.6 mi Calm Calm - N/A   Mist
3:00 AM 50.0 °F 48.2 °F 94% 30.04 in 1.6 mi Variable 1.2 mph - N/A   Mist
3:30 AM 50.0 °F 48.2 °F 94% 30.04 in 1.6 mi Calm Calm - N/A   Mist
5:30 AM 46 °F 45 °F 94% 30.04 in 1 mi Calm Calm - -   Mist
7:00 AM 48.2 °F 46.4 °F 93% 30.04 in 1.2 mi Calm Calm - N/A   Mist
7:30 AM 46.4 °F 46.4 °F 100% 30.04 in 1.2 mi Calm Calm - N/A   Mist
8:00 AM 50.0 °F 46.4 °F 87% 30.04 in 1.2 mi Calm Calm - N/A   Mist
8:30 AM 53 °F 50 °F 86% 30.06 in 1 mi Calm Calm - -   Mist
8:30 AM 53.6 °F 50.0 °F 88% 30.04 in 1.5 mi Calm Calm - N/A   Mist
9:00 AM 57.2 °F 51.8 °F 82% 30.06 in 1.5 mi Calm Calm - N/A   Mist
10:30 AM 66.2 °F 53.6 °F 64% 30.06 in 3.1 mi Calm Calm - N/A   Haze
11:00 AM 66.2 °F 55.4 °F 68% 30.06 in 3.1 mi Variable 2.3 mph - N/A   Haze
11:30 AM 69 °F 53 °F 47% 30.05 in 2 mi Calm Calm - -   Haze
11:30 AM 68.0 °F 53.6 °F 60% 30.06 in 3.1 mi Calm Calm - N/A   Haze
12:00 PM 71.6 °F 51.8 °F 50% 30.06 in 3.1 mi Variable 1.2 mph - N/A   Haze
12:30 PM 69.8 °F 51.8 °F 53% 30.04 in 3.1 mi ENE 4.6 mph - N/A   Haze
1:00 PM 71.6 °F 50.0 °F 46% 30.04 in 3.1 mi Variable 1.2 mph - N/A   Haze
1:30 PM 71.6 °F 51.8 °F 50% 30.01 in 3.1 mi Variable 1.2 mph - N/A   Haze
2:00 PM 71.6 °F 50.0 °F 46% 29.98 in 3.1 mi SSW 5.8 mph - N/A   Haze
2:30 PM 71 °F 48 °F 33% 29.96 in 2 mi SSW 5.8 mph - -   Haze
2:30 PM 71.6 °F 48.2 °F 43% 29.98 in 3.1 mi SSW 5.8 mph - N/A   Haze
3:00 PM 71.6 °F 48.2 °F 43% 29.98 in 2.8 mi Variable 2.3 mph - N/A   Haze
4:00 PM 69.8 °F 50.0 °F 49% 29.95 in 2.8 mi West 5.8 mph - N/A   Haze
4:30 PM 69.8 °F 50.0 °F 49% 29.95 in 2.8 mi Variable 4.6 mph - N/A   Haze
5:00 PM 69.8 °F 51.8 °F 53% 29.92 in 2.8 mi West 5.8 mph - N/A   Haze
5:30 PM 69 °F 50 °F 40% 29.91 in 2 mi Calm Calm - -   Haze
5:30 PM 69.8 °F 50.0 °F 49% 29.92 in 2.8 mi Calm Calm - N/A   Haze
6:00 PM 68.0 °F 50.0 °F 52% 29.92 in 2.8 mi Calm Calm - N/A   Haze
6:30 PM 66.2 °F 50.0 °F 56% 29.95 in 2.8 mi Calm Calm - N/A   Haze
7:30 PM 64.4 °F 51.8 °F 64% 29.95 in 2.5 mi Variable 1.2 mph - N/A   Haze
8:00 PM 62.6 °F 51.8 °F 68% 29.95 in - Calm Calm - N/A   Haze
8:30 PM 60 °F 52 °F 69% 29.96 in 2 mi Calm Calm - -   Mist
8:30 PM 59.0 °F 51.8 °F 77% 29.98 in 2.8 mi Calm Calm - N/A   Mist
9:00 PM 60.8 °F 53.6 °F 77% 29.98 in 2.8 mi Calm Calm - N/A   Mist
9:30 PM 59.0 °F 53.6 °F 82% 29.98 in 2.8 mi Calm Calm - N/A   Mist
10:00 PM 59.0 °F 51.8 °F 77% 29.98 in 2.8 mi Calm Calm - N/A   Mist
10:30 PM 57.2 °F 51.8 °F 82% 29.98 in 2.8 mi Calm Calm - N/A   Mist
11:00 PM 55.4 °F 53.6 °F 94% 29.98 in 2.8 mi Calm Calm - N/A   Mist
11:30 PM 55 °F 53 °F 89% 29.98 in 2 mi Calm Calm - -   Mist
11:30 PM 55.4 °F 53.6 °F 94% 29.98 in 2.8 mi Calm Calm - N/A   Mist